GW5197 Weather Reports


time (UTC)temp
C
wind
direction
speed
KPH
gust
KPH
rain 1hr
cm
rain 24hr
cm
rain mn
cm
humidity
%
barometer
mb
20260506004157 23 250 3.2 4.8 0.00 0.00 0.00 43 1014.0
20260506003658 23 302 1.6 3.2 0.00 0.00 0.00 43 1014.0
20260506003157 23 247 1.6 3.2 0.00 0.00 0.00 43 1014.0
20260506002657 23 284 4.8 8.0 0.00 0.00 0.00 43 1014.0
20260506002157 23 267 1.6 3.2 0.00 0.00 0.00 42 1014.0
20260506001657 23 202 0.0 1.6 0.00 0.00 0.00 42 1014.0
20260506001158 23 267 0.0 1.6 0.00 0.00 0.00 42 1014.0
20260506000657 23 286 1.6 3.2 0.00 0.00 0.00 41 1014.0
20260506000157 24 282 1.6 3.2 0.00 0.00 0.00 41 1014.0
20260505235657 24 282 3.2 4.8 0.00 0.00 0.00 40 1014.0
20260505235157 24 238 3.2 4.8 0.00 0.00 0.00 40 1014.0
20260505234657 24 239 3.2 6.4 0.00 0.00 0.00 40 1014.0
20260505234157 24 259 3.2 4.8 0.00 0.00 0.00 41 1014.0
20260505233657 25 235 4.8 6.4 0.00 0.00 0.00 41 1014.0
20260505233201 25 268 1.6 3.2 0.00 0.00 0.00 41 1014.0
20260505232658 24 257 1.6 3.2 0.00 0.00 0.00 41 1014.0
20260505232157 24 229 1.6 3.2 0.00 0.00 0.00 41 1014.0
20260505231657 24 245 3.2 3.2 0.00 0.00 0.00 42 1013.0
20260505231158 25 129 0.0 1.6 0.00 0.00 0.00 42 1013.0
20260505230657 25 210 1.6 3.2 0.00 0.00 0.00 42 1013.0
20260505230157 25 285 3.2 4.8 0.00 0.00 0.00 41 1013.0
20260505225657 25 295 3.2 6.4 0.00 0.00 0.00 41 1014.0
20260505225158 25 235 3.2 6.4 0.00 0.00 0.00 41 1014.0
20260505224657 25 298 1.6 3.2 0.00 0.00 0.00 42 1013.0
20260505224157 25 302 1.6 3.2 0.00 0.00 0.00 41 1013.0
20260505223657 25 253 3.2 4.8 0.00 0.00 0.00 41 1013.0
20260505223158 25 265 1.6 1.6 0.00 0.00 0.00 41 1013.0
20260505222657 25 274 1.6 4.8 0.00 0.00 0.00 41 1014.0
20260505222159 25 337 1.6 3.2 0.00 0.00 0.00 40 1013.0
20260505221657 25 261 4.8 8.0 0.00 0.00 0.00 41 1013.0
20260505221157 25 320 3.2 8.0 0.00 0.00 0.00 40 1013.0
20260505220657 25 309 3.2 6.4 0.00 0.00 0.00 40 1013.0
20260505220157 25 266 1.6 3.2 0.00 0.00 0.00 40 1013.0
20260505215658 25 225 3.2 6.4 0.00 0.00 0.00 39 1013.0
20260505215157 25 274 6.4 8.0 0.00 0.00 0.00 39 1013.0
20260505214657 25 296 1.6 3.2 0.00 0.00 0.00 40 1014.0
20260505214157 25 258 4.8 6.4 0.00 0.00 0.00 40 1013.0
20260505213658 25 174 0.0 1.6 0.00 0.00 0.00 41 1013.0
20260505213157 25 198 3.2 4.8 0.00 0.00 0.00 41 1014.0
20260505212658 25 292 4.8 11.3 0.00 0.00 0.00 40 1014.0
20260505212157 25 200 3.2 8.0 0.00 0.00 0.00 39 1014.0
20260505211659 25 293 1.6 3.2 0.00 0.00 0.00 39 1014.0
20260505211157 25 287 6.4 9.7 0.00 0.00 0.00 39 1014.0
20260505210658 25 297 6.4 11.3 0.00 0.00 0.00 39 1014.0
20260505210157 25 225 4.8 6.4 0.00 0.00 0.00 40 1014.0
20260505205657 25 215 1.6 6.4 0.00 0.00 0.00 42 1014.0
20260505205157 25 284 3.2 6.4 0.00 0.00 0.00 40 1014.0
20260505204658 25 301 4.8 9.7 0.00 0.00 0.00 40 1014.0
20260505204157 25 220 1.6 3.2 0.00 0.00 0.00 40 1014.0
20260505203211 25 281 6.4 9.7 0.00 0.00 0.00 40 1014.0
20260505202658 25 299 4.8 6.4 0.00 0.00 0.00 42 1014.0
20260505202158 25 277 3.2 4.8 0.00 0.00 0.00 41 1014.0
20260505201658 25 202 3.2 6.4 0.00 0.00 0.00 41 1014.0
20260505201157 25 271 3.2 9.7 0.00 0.00 0.00 40 1014.0
20260505200658 25 50 1.6 3.2 0.00 0.00 0.00 40 1014.0
20260505200157 25 199 4.8 8.0 0.00 0.00 0.00 41 1014.0
20260505195657 25 280 4.8 6.4 0.00 0.00 0.00 41 1014.0
20260505195157 24 254 4.8 6.4 0.00 0.00 0.00 42 1015.0
20260505194657 24 211 4.8 8.0 0.00 0.00 0.00 42 1015.0
20260505194157 24 316 4.8 6.4 0.00 0.00 0.00 41 1015.0
20260505193657 24 233 6.4 9.7 0.00 0.00 0.00 41 1015.0
20260505193157 24 192 3.2 4.8 0.00 0.00 0.00 41 1015.0
20260505192658 24 294 6.4 11.3 0.00 0.00 0.00 41 1015.0
20260505192157 24 242 4.8 6.4 0.00 0.00 0.00 40 1015.0
20260505191658 24 237 6.4 9.7 0.00 0.00 0.00 42 1015.0
20260505191159 24 208 4.8 6.4 0.00 0.00 0.00 43 1015.0
20260505190657 23 266 3.2 8.0 0.00 0.00 0.00 41 1015.0
20260505190158 23 205 3.2 4.8 0.00 0.00 0.00 44 1015.0
20260505185658 23 268 3.2 4.8 0.00 0.00 0.00 42 1015.0
20260505185158 23 233 6.4 8.0 0.00 0.00 0.00 42 1015.0
20260505184658 23 319 1.6 3.2 0.00 0.00 0.00 42 1015.0
20260505184158 23 227 3.2 6.4 0.00 0.00 0.00 42 1015.0
20260505183657 23 268 3.2 6.4 0.00 0.00 0.00 43 1015.0
20260505183157 23 303 6.4 11.3 0.00 0.00 0.00 43 1015.0
20260505182658 23 299 6.4 12.9 0.00 0.00 0.00 44 1015.0
20260505182159 23 216 4.8 6.4 0.00 0.00 0.00 44 1015.0
20260505181657 23 268 4.8 6.4 0.00 0.00 0.00 45 1015.0
20260505181159 23 263 4.8 9.7 0.00 0.00 0.00 44 1016.0
20260505180657 23 120 1.6 4.8 0.00 0.00 0.00 45 1016.0
20260505180158 23 235 4.8 8.0 0.00 0.00 0.00 43 1016.0
20260505175658 23 212 3.2 11.3 0.00 0.00 0.00 46 1016.0
20260505175158 23 275 3.2 4.8 0.00 0.00 0.00 46 1016.0
20260505174658 23 189 3.2 6.4 0.00 0.00 0.00 45 1016.0
20260505174157 22 267 6.4 6.4 0.00 0.00 0.00 45 1016.0
20260505173657 22 257 4.8 8.0 0.00 0.00 0.00 45 1016.0
20260505173157 22 306 4.8 6.4 0.00 0.00 0.00 45 1016.0
20260505172657 22 266 4.8 6.4 0.00 0.00 0.00 45 1016.0
20260505172157 22 289 8.0 12.9 0.00 0.00 0.00 44 1016.0
20260505171658 22 286 9.7 16.1 0.00 0.00 0.00 43 1016.0
20260505171157 22 255 8.0 11.3 0.00 0.00 0.00 46 1016.0
20260505170657 23 313 6.4 14.5 0.00 0.00 0.00 46 1016.0
20260505170157 23 234 4.8 6.4 0.00 0.00 0.00 46 1016.0
20260505165657 23 254 6.4 9.7 0.00 0.00 0.00 45 1016.0
20260505165158 23 267 3.2 4.8 0.00 0.00 0.00 47 1016.0
20260505164657 23 285 6.4 11.3 0.00 0.00 0.00 46 1016.0
20260505164158 23 156 3.2 6.4 0.00 0.00 0.00 46 1016.0
20260505163658 23 218 4.8 8.0 0.00 0.00 0.00 47 1016.0
20260505163158 23 296 4.8 9.7 0.00 0.00 0.00 47 1016.0
20260505162657 22 311 4.8 8.0 0.00 0.00 0.00 48 1016.0
20260505162206 22 223 4.8 11.3 0.00 0.00 0.00 48 1016.0
20260505161658 22 306 6.4 12.9 0.00 0.00 0.00 47 1016.0
20260505161158 22 276 4.8 8.0 0.00 0.00 0.00 47 1016.0
20260505160658 22 315 4.8 9.7 0.00 0.00 0.00 48 1016.0
20260505160158 22 249 6.4 9.7 0.00 0.00 0.00 47 1016.0
20260505153157 22 273 3.2 6.4 0.00 0.00 0.00 49 1016.0
20260505152700 22 257 9.7 11.3 0.00 0.00 0.00 48 1016.0
20260505152159 22 3 1.6 3.2 0.00 0.00 0.00 49 1016.0
20260505151658 22 184 1.6 1.6 0.00 0.00 0.00 48 1016.0
20260505151157 22 276 3.2 6.4 0.00 0.00 0.00 51 1016.0
20260505150658 22 226 3.2 3.2 0.00 0.00 0.00 53 1017.0
20260505150157 22 337 0.0 3.2 0.00 0.00 0.00 54 1017.0
20260505140157 18 17 1.6 3.2 0.00 0.00 0.00 66 1016.0
20260505130157 15 331 1.6 3.2 0.00 0.00 0.00 71 1016.0
20260505124657 14 118 0.0 3.2 0.00 0.00 0.00 76 1016.0
20260505124157 14 110 1.6 3.2 0.00 0.00 0.00 77 1016.0
20260505123657 14 336 0.0 3.2 0.00 0.00 0.00 76 1016.0
20260505123157 14 121 0.0 1.6 0.00 0.00 0.00 76 1016.0
20260505122658 14 221 0.0 1.6 0.00 0.00 0.00 76 1016.0
20260505122157 14 220 1.6 3.2 0.00 0.00 0.00 76 1016.0
20260505121658 13 252 0.0 1.6 0.00 0.00 0.00 78 1016.0
20260505121158 13 240 3.2 6.4 0.00 0.00 0.00 77 1016.0
20260505120658 13 260 3.2 3.2 0.00 0.00 0.00 77 1016.0
20260505120158 13 240 3.2 4.8 0.00 0.00 0.00 77 1016.0
20260505115658 13 260 3.2 4.8 0.00 0.00 0.00 77 1016.0
20260505115157 13 262 3.2 6.4 0.00 0.00 0.00 78 1016.0
20260505114657 12 275 1.6 3.2 0.00 0.00 0.00 79 1016.0
20260505114157 12 237 3.2 6.4 0.00 0.00 0.00 79 1015.0
20260505113658 12 256 1.6 4.8 0.00 0.00 0.00 80 1015.0
20260505113157 12 72 1.6 3.2 0.00 0.00 0.00 80 1015.0
20260505112658 12 151 3.2 4.8 0.00 0.00 0.00 80 1015.0
20260505112157 12 212 1.6 3.2 0.00 0.00 0.00 79 1015.0
20260505111657 12 227 3.2 6.4 0.00 0.00 0.00 79 1015.0
20260505111158 12 229 3.2 6.4 0.00 0.00 0.00 79 1015.0
20260505110657 12 232 3.2 6.4 0.00 0.00 0.00 79 1015.0
20260505110157 12 216 1.6 4.8 0.00 0.00 0.00 78 1015.0
20260505102159 12 269 3.2 8.0 0.00 0.00 0.00 76 1015.0
20260505101659 12 227 1.6 4.8 0.00 0.00 0.00 76 1015.0
20260505101159 12 121 1.6 4.8 0.00 0.00 0.00 75 1015.0
20260505100700 12 229 3.2 4.8 0.00 0.00 0.00 76 1015.0
20260505100159 12 164 1.6 4.8 0.00 0.00 0.00 76 1015.0
20260505095658 13 88 1.6 3.2 0.00 0.00 0.00 75 1015.0
20260505095159 13 238 1.6 3.2 0.00 0.00 0.00 72 1015.0
20260505094659 13 68 0.0 3.2 0.00 0.00 0.00 71 1015.0
20260505094159 13 211 0.0 1.6 0.00 0.00 0.00 71 1015.0
20260505093658 13 235 0.0 3.2 0.00 0.00 0.00 69 1015.0
20260505093158 13 198 0.0 1.6 0.00 0.00 0.00 69 1015.0
20260505092659 13 222 1.6 4.8 0.00 0.00 0.00 68 1015.0
20260505092159 14 237 1.6 4.8 0.00 0.00 0.00 68 1015.0
20260505091703 14 211 0.0 1.6 0.00 0.00 0.00 66 1015.0
20260505091157 14 202 1.6 1.6 0.00 0.00 0.00 65 1015.0
20260505090659 14 221 3.2 4.8 0.00 0.00 0.00 65 1015.0
20260505090159 14 216 1.6 3.2 0.00 0.00 0.00 65 1015.0
20260505085659 14 207 0.0 3.2 0.00 0.00 0.00 65 1015.0
20260505085159 14 222 1.6 4.8 0.00 0.00 0.00 65 1015.0
20260505084659 13 209 1.6 3.2 0.00 0.00 0.00 67 1015.0
20260505084158 13 204 1.6 1.6 0.00 0.00 0.00 68 1015.0
20260505083657 13 216 0.0 1.6 0.00 0.00 0.00 68 1015.0
20260505083158 13 160 0.0 1.6 0.00 0.00 0.00 71 1015.0
20260505082657 13 188 0.0 1.6 0.00 0.00 0.00 72 1015.0
20260505082159 12 289 1.6 3.2 0.00 0.00 0.00 77 1015.0
20260505081700 12 0 0.0 0.0 0.00 0.00 0.00 75 1015.0
20260505081200 12 226 0.0 4.8 0.00 0.00 0.00 76 1015.0
20260505080700 12 255 1.6 4.8 0.00 0.00 0.00 78 1015.0
20260505080159 12 284 3.2 6.4 0.00 0.00 0.00 81 1015.0
20260505075657 12 209 0.0 3.2 0.00 0.00 0.00 80 1015.0
20260505075159 12 53 0.0 3.2 0.00 0.00 0.00 80 1015.0
20260505074659 12 72 1.6 3.2 0.00 0.00 0.00 80 1015.0
20260505074159 12 345 1.6 3.2 0.00 0.00 0.00 79 1015.0
20260505073706 12 100 1.6 3.2 0.00 0.00 0.00 79 1015.0
20260505073200 12 257 3.2 4.8 0.00 0.00 0.00 79 1015.0
20260505072659 12 280 3.2 4.8 0.00 0.00 0.00 80 1015.0
20260505072200 12 161 1.6 3.2 0.00 0.00 0.00 79 1015.0
20260505071658 13 57 1.6 3.2 0.00 0.00 0.00 78 1015.0
20260505071159 13 313 1.6 3.2 0.00 0.00 0.00 77 1015.0
20260505070701 13 100 0.0 3.2 0.00 0.00 0.00 76 1015.0
20260505070159 13 115 1.6 3.2 0.00 0.00 0.00 76 1015.0
20260505065657 13 145 1.6 3.2 0.00 0.00 0.00 76 1015.0
20260505065159 12 147 1.6 3.2 0.00 0.00 0.00 77 1015.0
20260505064659 12 191 1.6 3.2 0.00 0.00 0.00 78 1015.0
20260505064157 12 349 0.0 1.6 0.00 0.00 0.00 78 1015.0
20260505063657 12 202 0.0 3.2 0.00 0.00 0.00 78 1015.0
20260505063158 12 150 0.0 3.2 0.00 0.00 0.00 77 1015.0
20260505062659 13 144 0.0 1.6 0.00 0.00 0.00 77 1015.0
20260505062200 13 105 0.0 3.2 0.00 0.00 0.00 77 1015.0
20260505061658 13 239 1.6 3.2 0.00 0.00 0.00 75 1015.0
20260505061158 13 76 0.0 1.6 0.00 0.00 0.00 75 1015.0
20260505060659 13 150 0.0 1.6 0.00 0.00 0.00 74 1015.0
20260505060158 13 102 1.6 3.2 0.00 0.00 0.00 73 1015.0
20260505055657 14 61 0.0 1.6 0.00 0.00 0.00 72 1015.0
20260505055157 14 102 0.0 3.2 0.00 0.00 0.00 71 1015.0
20260505054658 14 169 0.0 0.0 0.00 0.00 0.00 71 1016.0
20260505054157 14 203 0.0 1.6 0.00 0.00 0.00 69 1015.0
20260505053658 15 230 1.6 1.6 0.00 0.00 0.00 69 1015.0
20260505053158 15 242 0.0 1.6 0.00 0.00 0.00 68 1015.0
20260505052657 15 238 1.6 3.2 0.00 0.00 0.00 66 1015.0
20260505052158 15 198 0.0 0.0 0.00 0.00 0.00 67 1015.0
20260505051657 15 195 0.0 1.6 0.00 0.00 0.00 67 1015.0
20260505051157 15 233 0.0 0.0 0.00 0.00 0.00 67 1015.0
20260505050657 15 237 0.0 3.2 0.00 0.00 0.00 67 1015.0
20260505050158 15 220 0.0 3.2 0.00 0.00 0.00 67 1015.0
20260505041657 15 227 0.0 1.6 0.00 0.00 0.00 65 1015.0
20260505041158 16 253 0.0 0.0 0.00 0.00 0.00 64 1015.0
20260505040657 16 143 0.0 1.6 0.00 0.00 0.00 64 1015.0
20260505040158 16 107 0.0 1.6 0.00 0.00 0.00 64 1015.0
20260505035657 16 230 0.0 1.6 0.00 0.00 0.00 63 1015.0
20260505035158 16 38 0.0 1.6 0.00 0.00 0.00 62 1015.0
20260505034657 16 280 0.0 1.6 0.00 0.00 0.00 62 1015.0
20260505034159 16 164 0.0 1.6 0.00 0.00 0.00 61 1015.0
20260505033658 16 277 0.0 1.6 0.00 0.00 0.00 59 1016.0
20260505033158 17 264 0.0 1.6 0.00 0.00 0.00 59 1016.0
20260505032658 17 168 0.0 1.6 0.00 0.00 0.00 59 1015.0
20260505032205 17 184 1.6 3.2 0.00 0.00 0.00 60 1016.0
20260505031657 17 331 0.0 1.6 0.00 0.00 0.00 58 1016.0
20260505031157 16 218 1.6 3.2 0.00 0.00 0.00 58 1016.0
20260505030658 16 268 0.0 1.6 0.00 0.00 0.00 58 1016.0
20260505030157 16 193 0.0 1.6 0.00 0.00 0.00 58 1015.0
20260505025658 16 160 0.0 1.6 0.00 0.00 0.00 57 1015.0
20260505025157 17 198 0.0 1.6 0.00 0.00 0.00 56 1015.0
20260505024657 17 10 0.0 1.6 0.00 0.00 0.00 56 1015.0
20260505024157 17 167 0.0 0.0 0.00 0.00 0.00 55 1015.0
20260505023657 17 83 0.0 1.6 0.00 0.00 0.00 55 1015.0
20260505023158 17 0 0.0 0.0 0.00 0.00 0.00 54 1015.0
20260505022657 17 143 0.0 1.6 0.00 0.00 0.00 54 1015.0
20260505022157 17 0 0.0 0.0 0.00 0.00 0.00 54 1015.0
20260505021658 17 311 0.0 1.6 0.00 0.00 0.00 52 1015.0
20260505021158 18 111 0.0 1.6 0.00 0.00 0.00 52 1015.0
20260505020658 18 175 0.0 1.6 0.00 0.00 0.00 52 1015.0
20260505020200 18 200 0.0 1.6 0.00 0.00 0.00 52 1015.0
20260505015657 18 200 0.0 0.0 0.00 0.00 0.00 51 1015.0
20260505015157 18 177 0.0 1.6 0.00 0.00 0.00 51 1015.0
20260505014658 18 175 0.0 0.0 0.00 0.00 0.00 50 1015.0
20260505014158 18 199 0.0 1.6 0.00 0.00 0.00 49 1015.0
20260505013657 18 325 0.0 0.0 0.00 0.00 0.00 50 1015.0
20260505013158 18 212 0.0 1.6 0.00 0.00 0.00 51 1015.0
20260505012707 18 308 0.0 1.6 0.00 0.00 0.00 50 1015.0
20260505012157 18 202 0.0 1.6 0.00 0.00 0.00 50 1015.0
20260505011659 19 134 0.0 3.2 0.00 0.00 0.00 51 1015.0
20260505011159 19 164 0.0 0.0 0.00 0.00 0.00 50 1015.0
20260505010658 20 138 0.0 0.0 0.00 0.00 0.00 50 1015.0
20260505010158 20 183 0.0 1.6 0.00 0.00 0.00 48 1015.0
20260505005657 20 116 0.0 1.6 0.00 0.00 0.00 48 1015.0
20260505005158 20 0 0.0 0.0 0.00 0.00 0.00 46 1015.0
20260505004657 21 172 0.0 1.6 0.00 0.00 0.00 45 1015.0